Hourly Weather Ghent

Today, 5 July, Sunday

Time Temperature Precipitation Wind Pressure Humidity
00:00 +18°C° 0 mm 7 mps 759 mmHg 83%
01:00 +18°C° 0 mm 8 mps 758 mmHg 83%
02:00 +18°C° 0 mm 8 mps 758 mmHg 83%
03:00 +18°C° 0 mm 8 mps 758 mmHg 83%
04:00 +18°C° 0 mm 8 mps 758 mmHg 82%
05:00 +18°C° 0 mm 8 mps 758 mmHg 81%
06:00 +18°C° 0 mm 9 mps 758 mmHg 78%
07:00 +18°C° 0 mm 9 mps 758 mmHg 77%
08:00 +19°C° 0 mm 9 mps 758 mmHg 77%
09:00 +19°C° 0 mm 9 mps 758 mmHg 77%
10:00 +19°C° 0 mm 9 mps 758 mmHg 75%
11:00 +19°C° 0 mm 9 mps 758 mmHg 74%
12:00 +19°C° 0 mm 9 mps 758 mmHg 73%
13:00 +21°C° 0 mm 9 mps 758 mmHg 68%
14:00 +21°C° 0 mm 10 mps 758 mmHg 64%
15:00 +22°C° 0 mm 10 mps 758 mmHg 59%
16:00 +21°C° 0 mm 9 mps 758 mmHg 60%
17:00 +19°C° 0 mm 9 mps 758 mmHg 60%
18:00 +18°C° 0 mm 8 mps 758 mmHg 61%
19:00 +17°C° 0 mm 8 mps 758 mmHg 64%
20:00 +16°C° 0 mm 7 mps 759 mmHg 67%
21:00 +15°C° 0 mm 7 mps 759 mmHg 70%
22:00 +14°C° 0 mm 7 mps 759 mmHg 69%
23:00 +14°C° 0 mm 6 mps 759 mmHg 67%

Tomorrow, 6 July, Monday

Time Temperature Precipitation Wind Pressure Humidity
00:00 +14°C° 0 mm 6 mps 760 mmHg 66%
01:00 +13°C° 0 mm 6 mps 760 mmHg 67%
02:00 +13°C° 0 mm 6 mps 760 mmHg 69%
03:00 +11°C° 0 mm 6 mps 759 mmHg 70%
04:00 +13°C° 0 mm 6 mps 760 mmHg 71%
05:00 +12°C° 0 mm 7 mps 760 mmHg 72%
06:00 +14°C° 0 mm 7 mps 760 mmHg 73%
07:00 +14°C° 0.2 mm 7 mps 760 mmHg 70%
08:00 +15°C° 0.2 mm 7 mps 761 mmHg 67%
09:00 +16°C° 0.2 mm 8 mps 761 mmHg 65%
10:00 +16°C° 0.1 mm 8 mps 761 mmHg 63%
11:00 +16°C° 0.1 mm 8 mps 761 mmHg 61%
12:00 +17°C° 0.1 mm 7 mps 762 mmHg 60%
13:00 +17°C° 0.1 mm 7 mps 762 mmHg 59%
14:00 +18°C° 0.1 mm 7 mps 762 mmHg 58%
15:00 +18°C° 0.1 mm 7 mps 763 mmHg 56%
16:00 +17°C° 0.1 mm 6 mps 763 mmHg 60%
17:00 +17°C° 0.1 mm 6 mps 764 mmHg 63%
18:00 +16°C° 0.1 mm 5 mps 764 mmHg 66%
19:00 +15°C° 0 mm 4 mps 765 mmHg 71%
20:00 +13°C° 0 mm 3 mps 765 mmHg 76%
21:00 +13°C° 0 mm 2 mps 766 mmHg 81%
22:00 +12°C° 0 mm 1 mps 766 mmHg 82%
23:00 +12°C° 0 mm 1 mps 766 mmHg 83%

Day after tomorrow, 7 July, Tuesday

Time Temperature Precipitation Wind Pressure Humidity
00:00 +11°C° 0 mm 0 mps 766 mmHg 84%
01:00 +11°C° 0 mm 1 mps 766 mmHg 84%
02:00 +11°C° 0 mm 1 mps 766 mmHg 85%
03:00 +11°C° 0 mm 1 mps 766 mmHg 85%
04:00 +12°C° 0 mm 1 mps 766 mmHg 82%
05:00 +13°C° 0 mm 2 mps 766 mmHg 79%
06:00 +14°C° 0 mm 2 mps 766 mmHg 76%
07:00 +14°C° 0 mm 3 mps 766 mmHg 71%
08:00 +17°C° 0 mm 3 mps 766 mmHg 65%
09:00 +19°C° 0 mm 4 mps 766 mmHg 60%
10:00 +20°C° 0 mm 4 mps 765 mmHg 56%
11:00 +20°C° 0 mm 5 mps 765 mmHg 52%
12:00 +21°C° 0 mm 5 mps 764 mmHg 49%
13:00 +21°C° 0 mm 5 mps 764 mmHg 49%
14:00 +21°C° 0 mm 5 mps 764 mmHg 48%
15:00 +22°C° 0 mm 4 mps 764 mmHg 48%
16:00 +21°C° 0 mm 4 mps 763 mmHg 51%
17:00 +20°C° 0 mm 4 mps 763 mmHg 55%
18:00 +19°C° 0 mm 4 mps 763 mmHg 59%
19:00 +18°C° 0 mm 4 mps 762 mmHg 59%
20:00 +18°C° 0 mm 4 mps 762 mmHg 60%
21:00 +17°C° 0 mm 4 mps 762 mmHg 61%
22:00 +15°C° 0 mm 5 mps 762 mmHg 63%
23:00 +15°C° 0 mm 5 mps 762 mmHg 65%

8 July, Wednesday

Time Temperature Precipitation Wind Pressure Humidity
00:00 +14°C° 0 mm 5 mps 762 mmHg 67%
01:00 +14°C° 0 mm 5 mps 761 mmHg 68%
02:00 +14°C° 0 mm 5 mps 761 mmHg 69%
03:00 +14°C° 0 mm 5 mps 761 mmHg 71%
04:00 +15°C° 0 mm 5 mps 761 mmHg 74%
05:00 +15°C° 0 mm 5 mps 761 mmHg 77%
06:00 +15°C° 0 mm 6 mps 760 mmHg 81%
07:00 +16°C° 0.1 mm 5 mps 761 mmHg 78%
08:00 +17°C° 0.1 mm 5 mps 761 mmHg 76%
09:00 +19°C° 0.1 mm 5 mps 761 mmHg 74%
10:00 +19°C° 0.1 mm 5 mps 761 mmHg 71%
11:00 +20°C° 0.1 mm 5 mps 761 mmHg 68%
12:00 +20°C° 0.1 mm 5 mps 762 mmHg 65%
13:00 +21°C° 0 mm 4 mps 762 mmHg 64%
14:00 +21°C° 0 mm 4 mps 762 mmHg 62%
15:00 +21°C° 0 mm 4 mps 762 mmHg 61%
16:00 +20°C° 0 mm 4 mps 762 mmHg 65%
17:00 +20°C° 0 mm 3 mps 763 mmHg 68%
18:00 +19°C° 0 mm 3 mps 763 mmHg 72%
19:00 +18°C° 0 mm 3 mps 763 mmHg 78%
20:00 +16°C° 0 mm 2 mps 763 mmHg 84%
21:00 +15°C° 0 mm 2 mps 764 mmHg 90%
22:00 +14°C° 0 mm 2 mps 764 mmHg 90%
23:00 +14°C° 0 mm 1 mps 764 mmHg 90%

9 July, Thursday

Time Temperature Precipitation Wind Pressure Humidity
00:00 +14°C° 0 mm 1 mps 764 mmHg 90%
01:00 +13°C° 0 mm 1 mps 764 mmHg 90%
02:00 +13°C° 0 mm 1 mps 764 mmHg 90%
03:00 +12°C° 0 mm 0 mps 764 mmHg 90%
04:00 +13°C° 0 mm 0 mps 764 mmHg 87%
05:00 +15°C° 0 mm 1 mps 764 mmHg 84%
06:00 +16°C° 0 mm 1 mps 764 mmHg 81%
07:00 +18°C° 0 mm 1 mps 764 mmHg 75%
08:00 +20°C° 0 mm 1 mps 764 mmHg 69%
09:00 +21°C° 0 mm 2 mps 764 mmHg 63%
10:00 +23°C° 0 mm 2 mps 764 mmHg 59%
11:00 +24°C° 0 mm 2 mps 763 mmHg 55%
12:00 +25°C° 0 mm 3 mps 763 mmHg 51%
13:00 +26°C° 0 mm 3 mps 762 mmHg 50%
14:00 +27°C° 0 mm 4 mps 762 mmHg 49%
15:00 +27°C° 0 mm 4 mps 762 mmHg 49%
16:00 +26°C° 0 mm 4 mps 761 mmHg 53%
17:00 +26°C° 0 mm 4 mps 761 mmHg 58%
18:00 +25°C° 0 mm 3 mps 760 mmHg 62%
19:00 +22°C° 0 mm 3 mps 760 mmHg 68%
20:00 +21°C° 0 mm 3 mps 760 mmHg 74%
21:00 +19°C° 0 mm 2 mps 760 mmHg 80%
22:00 +18°C° 0 mm 3 mps 760 mmHg 81%
23:00 +17°C° 0 mm 3 mps 759 mmHg 82%

10 July, Friday

Time Temperature Precipitation Wind Pressure Humidity
00:00 +17°C° 0 mm 3 mps 759 mmHg 82%
01:00 +17°C° 0 mm 3 mps 759 mmHg 83%
02:00 +17°C° 0 mm 3 mps 758 mmHg 84%
03:00 +17°C° 0 mm 4 mps 758 mmHg 84%
04:00 +17°C° 0.1 mm 4 mps 758 mmHg 85%
05:00 +16°C° 0.1 mm 5 mps 758 mmHg 85%
06:00 +16°C° 0.1 mm 5 mps 758 mmHg 85%
07:00 +16°C° 0.1 mm 5 mps 758 mmHg 82%
08:00 +16°C° 0.1 mm 5 mps 758 mmHg 78%
09:00 +16°C° 0.1 mm 6 mps 758 mmHg 74%
10:00 +17°C° 0 mm 6 mps 759 mmHg 67%
11:00 +19°C° 0 mm 6 mps 759 mmHg 61%
12:00 +18°C° 0 mm 7 mps 759 mmHg 54%
13:00 +18°C° 0 mm 7 mps 760 mmHg 53%
14:00 +18°C° 0 mm 7 mps 760 mmHg 52%
15:00 +18°C° 0 mm 7 mps 760 mmHg 51%
16:00 +18°C° 0 mm 7 mps 760 mmHg 53%
17:00 +17°C° 0 mm 6 mps 760 mmHg 54%
18:00 +17°C° 0 mm 6 mps 761 mmHg 56%
19:00 +15°C° 0 mm 5 mps 761 mmHg 62%
20:00 +14°C° 0 mm 4 mps 762 mmHg 67%
21:00 +13°C° 0 mm 3 mps 762 mmHg 73%
22:00 +12°C° 0 mm 3 mps 762 mmHg 76%
23:00 +12°C° 0 mm 3 mps 763 mmHg 78%
Show more